Flag for Brazil Weather past 2 weeks in Florianópolis, Santa Catarina, Brazil

Now
66 °F

Fog.


Feels Like: 66 °F
Forecast: 63 / 68 °F
Wind: 7 mph from Northwest

Location: Florianopolis Aeroporto

Current Time: Jul 7, 2015 at 10:38:29 AM

Latest Report: Jul 7, 2015 at 10:00 AM


Visibility: 2 mi

Pressure: 30.04 "Hg

Humidity: 94%

Dew point: 64 °F

Location of FlorianópolisLocation

Historic Weather in Florianópolis — Graph

°F

Florianópolis temperature yesterday

Maximum temperature yesterday: 66 °F (at 3:00 PM)
Minimum temperature yesterday: 59 °F (at 12:00 AM)
Average temperature yesterday: 63 °F

Past Weeks' High & Low Weather Summary

 TemperatureHumidityPressure
High79 °F (Jun 30, 1:00 PM)100% (Jun 26, 7:00 AM)30.54 "Hg (Jun 26, 7:00 AM)
Low54 °F (Jul 5, 6:00 AM)40% (Jul 4, 2:00 PM)29.77 "Hg (Jul 3, 3:00 PM)
Average65 °F78%30.19 "Hg
* Reported Jun 22 9:00 AM — Jul 7 9:00 AM, Florianópolis, Weather by CustomWeather, © 2015

Note: Actual official high and low records may vary slightly from our data, if they occured in-between our weather recording intervals... More about our weather records

Advertising

Florianópolis weather history for previous 24 hours

 ConditionsComfort  
Time TempWeatherWind HumidityBarometerVisibility
9:00 AM
Tue, Jul 7
64 °FLight rain. Partly sunny.No wind94%30.04 "Hg2 mi
8:00 AM64 °FLight rain. Partly sunny.2 mph94%30.04 "Hg2 mi
7:00 AM64 °FLight rain. Partly sunny.No wind94%30.04 "Hg3 mi
6:00 AM64 °FLight rain. Passing clouds.2 mph94%30.04 "Hg4 mi
5:00 AM66 °FPassing clouds.6 mph88%30.07 "Hg4 mi
4:00 AM66 °FPassing clouds.2 mph88%30.07 "Hg4 mi
3:00 AM66 °FPassing clouds.8 mph88%30.09 "Hg4 mi
2:00 AM66 °FPassing clouds.6 mph88%30.09 "Hg4 mi
1:00 AM66 °FPassing clouds.8 mph88%30.09 "Hg4 mi
12:00 AM66 °FPassing clouds.7 mph88%30.09 "Hg4 mi
11:00 PM
Mon, Jul 6
66 °FPassing clouds.8 mph88%30.12 "Hg5 mi
10:00 PM66 °FPassing clouds.8 mph88%30.12 "Hg4 mi
9:00 PM64 °FFog.8 mph94%30.09 "Hg2 mi
8:00 PM64 °FFog.6 mph94%30.09 "Hg2 mi
7:00 PM64 °FFog.6 mph94%30.12 "Hg2 mi
6:00 PM64 °FFog.6 mph94%30.09 "Hg2 mi
5:00 PM64 °FFog.6 mph94%30.09 "Hg2 mi
4:00 PM64 °FPartly sunny.6 mph94%30.12 "Hg4 mi
3:00 PM66 °FPartly sunny.8 mph83%30.12 "Hg4 mi
2:00 PM64 °FBroken clouds.8 mph94%30.15 "HgN/A
1:00 PM64 °FDrizzle. Broken clouds.6 mph88%30.15 "Hg2 mi
12:00 PM64 °FBroken clouds.7 mph88%30.18 "Hg5 mi
11:00 AM63 °FBroken clouds.5 mph88%30.21 "Hg4 mi
10:00 AM63 °FBroken clouds.6 mph88%30.21 "HgN/A
Weather by CustomWeather, © 2015

See weather overviewHow to use our weather pages